AirNav   Air Wisconsin pilot careers
 
 1421 users online  

6TS9 MCP Heliport
Plano, Texas, USA

GOING TO PLANO?


FAA INFORMATION EFFECTIVE 04 JANUARY 2018

Location

FAA Identifier: 6TS9
Lat/Long: 33-01-21.4200N / 096-45-59.6000W
33-01.357000N / 096-45.993333W
33.0226167 / -96.7665556
(estimated)
Elevation: 744 ft. / 227 m (estimated)
Variation: 06E (1985)
From city: 3 miles N of PLANO, TX
Time zone: UTC -6 (UTC -5 during Daylight Saving Time)
Zip code: 75075

Heliport Operations

Heliport use: Private use, MEDICAL.
Activation date: 08/1985
Control tower: no
ARTCC: FORT WORTH CENTER
FSS: FORT WORTH FLIGHT SERVICE STATION
Attendance: UNATNDD
HELI RSTD TO MEDICAL EMERG FLTS.
Wind indicator: yes
Segmented circle: no

Heliport Communications

WX AWOS-3 at ADS (5 nm SW): PHONE 972-386-4855
WX ASOS at DAL (11 nm S): PHONE 214-353-1551
WX ASOS at TKI (13 nm NE): 119.925 (972-548-8525)
WX AWOS-3 at 49T (15 nm S): 135.425 (214-670-1243)
WX ASOS at DFW (16 nm SW): PHONE 972-615-2608
WX AWOS-3 at F46 (18 nm E): 121.25 (972-772-6699)

Nearby radio navigation aids

VOR radial/distance  VOR name  Freq  Var
CVEr035/10.5COWBOY VOR/DME116.2006E
TTTr050/16.6MAVERICK VOR/DME113.1006E
FUZr063/22.3RANGER VORTAC115.7006E

 
NDB name  Hdg/Dist  Freq  Var  ID
MELISA209/16.942103EVLY ...- .-.. -.--
MESQUITE314/17.524803EPQF .--. --.- ..-.
CADDO MILLS262/26.131606EMII -- .. ..
TRAVIS295/30.526006EAVZ .- ...- --..

Heliport Services

Runway Information

Helipad H2

Dimensions: 44 x 44 ft. / 13 x 13 m
Surface: concrete
Latitude: 33-01.346667N
Longitude: 096-45.992833W
Elevation: 744.0 ft.
Traffic pattern: leftleft

Helipad H1

Dimensions: 30 x 30 ft. / 9 x 9 m
CONC TD PAD WITH A 60 X 60' LNDG AREA.
Surface: concrete
Latitude: 33-01.369000N
Longitude: 096-45.992833W
Elevation: 744.0 ft.
Traffic pattern: leftleft

Heliport Ownership and Management from official FAA records

Ownership: Privately-owned
Owner: HCA MEDICAL CENTER OF PLANO
3901 W 15TH
PLANO, TX 75075
Phone 214-596-6800
Manager: HOSPITAL ADMINISTRATOR
3901 W 15TH
PLANO, TX 75075
Phone 214-596-6800

Additional Remarks

A40-1 HELI LGTD WITH PERIMETER LGTS & ILLUMINATED NGTS.
A52-H1 OBSTNS: 70'HOSPITAL BLDG 200'E. MKD 50'PLINES 100'N. 50'OFC BLDG 1000'ESE. 30'TREES 200'E. 45'APT COMPLEX 1000'NW. 250'WTR TWR 2500'W & BLDG 300'WNW.

Instrument Procedures

There are no published instrument procedures at 6TS9.

Some nearby airports with instrument procedures:

KADS - Addison Airport (5 nm SW)
KDAL - Dallas Love Field Airport (11 nm S)
KTKI - McKinney National Airport (13 nm NE)
KDFW - Dallas-Fort Worth International Airport (16 nm SW)
F46 - Ralph M Hall/Rockwall Municipal Airport (18 nm E)
 
Loc | Ops | Rwys | IFR | FBO | Links
Com | Nav | Svcs | Stats | Notes

Lake Texoma Jet Center
AirBoss

 
Area around 6TS9 (MCP Heliport)
 
Road maps at: MapQuest Bing Google
 
Aerial photo
No photo
 
Sectional chart

 
Airport distance calculator
Flying to MCP Heliport? Find the distance to fly.

From to 6TS9

Sunrise and sunset
Times for 19-Jan-2018
 Local
(UTC-6)
 Zulu
(UTC)
Morning civil twilight07:0413:04
Sunrise07:3013:30
Sunset17:4623:46
Evening civil twilight18:1200:12

Current date and time
Zulu (UTC)  19-Jan-2018 16:34:52
Local (UTC-6)  19-Jan-2018 10:34:52
 
METAR
KADS 
4nm SW 
191447Z 18013G18KT 13SM OVC016 05/M04 A3022
KDAL 
11nm S 
191553Z 17010KT 10SM OVC019 07/M03 A3024 RMK AO2 SLP241 T00671033
KTKI 
13nm NE 
191553Z 19010KT 10SM OVC016 06/M03 A3024 RMK AO2 SLP253 T00611028
KDFW 
15nm SW 
191553Z 17011KT 10SM OVC017 08/M03 A3021 RMK AO2 SLP232 T00781028 $
KF46 
18nm E 
191615Z AUTO 10SM OVC017 06/M02 A3026 RMK AO2 T00571016
TAF
KDAL 
11nm S 
191446Z 1915/2012 17009KT P6SM BKN018 FM191900 18017KT P6SM SCT025 FM200300 17015KT P6SM BKN025 FM200800 17013KT 5SM BR BKN011
KDFW 
15nm SW 
191446Z 1915/2018 18009KT P6SM BKN018 FM191900 18017KT P6SM SCT025 FM200300 17015KT P6SM BKN025 FM200800 17013KT 5SM BR BKN011
NOTAMs
Click for the latest NOTAMs
NOTAMs are issued by the DoD/FAA and will open in a separate window not controlled by AirNav.

 

 
 

Would you like to see your business listed on this page?

 If your business provides an interesting product or service to pilots, flight crews, aircraft, or users of the MCP Heliport, you should consider listing it here.  To start the listing process, click on the button below
 
Add a business
 

Other Pages about MCP Heliport

Update a link
 
Copyright © AirNav, LLC. All rights reserved. Privacy Policy  Contact